Satellite: TACSAT-3
Catalog number: 35001
Epoch time:      10063.59728232
Element set:     230
Inclination:      040.4559 deg
RA of node:       121.8641 deg
Eccentricity:    0.0023434
Arg of perigee:   301.7054 deg
Mean anomaly:     058.1476 deg
Mean motion:   15.40554018 rev/day
Decay rate:      5.590e-05 rev/day^2
Epoch rev:            4449
Checksum:              264

Satellite: PHARMSAT
Catalog number: 35002
Epoch time:      10063.46043939
Element set:     218
Inclination:      040.4710 deg
RA of node:       121.1014 deg
Eccentricity:    0.0026495
Arg of perigee:   303.7953 deg
Mean anomaly:     056.0340 deg
Mean motion:   15.41189219 rev/day
Decay rate:      4.602e-05 rev/day^2
Epoch rev:            4448
Checksum:              250

Satellite: HAWKSAT1
Catalog number: 35003
Epoch time:      10063.47929045
Element set:     230
Inclination:      040.4637 deg
RA of node:       118.3315 deg
Eccentricity:    0.0024650
Arg of perigee:   311.2683 deg
Mean anomaly:     048.6011 deg
Mean motion:   15.43091981 rev/day
Decay rate:      9.093e-05 rev/day^2
Epoch rev:            4452
Checksum:              259

Satellite: CP6
Catalog number: 35004
Epoch time:      10063.45530196
Element set:     223
Inclination:      040.4660 deg
RA of node:       118.1620 deg
Eccentricity:    0.0023884
Arg of perigee:   310.6795 deg
Mean anomaly:     049.1950 deg
Mean motion:   15.43513599 rev/day
Decay rate:     1.0586e-04 rev/day^2
Epoch rev:            4451
Checksum:              277

Satellite: AEROCUB3
Catalog number: 35005
Epoch time:      10062.55966831
Element set:     236
Inclination:      040.4755 deg
RA of node:       124.0049 deg
Eccentricity:    0.0022106
Arg of perigee:   303.6424 deg
Mean anomaly:     056.2284 deg
Mean motion:   15.44653976 rev/day
Decay rate:     2.0572e-04 rev/day^2
Epoch rev:            4437
Checksum:              275

Satellite: DRAGNSAT
Catalog number: 35690
Epoch time:      10063.26916647
Element set:     295
Inclination:      051.6303 deg
RA of node:       026.6234 deg
Eccentricity:    0.0004055
Arg of perigee:   138.5403 deg
Mean anomaly:     221.6009 deg
Mean motion:   16.10700200 rev/day
Decay rate:    4.05399e-03 rev/day^2
Epoch rev:            3446
Checksum:              259

Satellite: POLLUX
Catalog number: 35693
Epoch time:      10063.35545927
Element set:     292
Inclination:      051.6318 deg
RA of node:       028.7836 deg
Eccentricity:    0.0004938
Arg of perigee:   118.0063 deg
Mean anomaly:     242.1982 deg
Mean motion:   16.03794029 rev/day
Decay rate:    2.16072e-03 rev/day^2
Epoch rev:            3441
Checksum:              295

Satellite: CASTOR
Catalog number: 35694
Epoch time:      10063.39954103
Element set:     213
Inclination:      051.6373 deg
RA of node:       035.2979 deg
Eccentricity:    0.0004643
Arg of perigee:   120.5511 deg
Mean anomaly:     239.6483 deg
Mean motion:   15.88743320 rev/day
Decay rate:     4.2915e-04 rev/day^2
Epoch rev:            3433
Checksum:              286

Satellite: METEOR-M
Catalog number: 35865
Epoch time:      10063.21008766
Element set:     141
Inclination:      098.7725 deg
RA of node:       117.6946 deg
Eccentricity:    0.0001804
Arg of perigee:   323.7744 deg
Mean anomaly:     036.3285 deg
Mean motion:   14.21828948 rev/day
Decay rate:       1.76e-06 rev/day^2
Epoch rev:            2380
Checksum:              299

Satellite: RS-38
Catalog number: 35869
Epoch time:      10062.70012911
Element set:     143
Inclination:      098.7728 deg
RA of node:       117.2121 deg
Eccentricity:    0.0004425
Arg of perigee:   320.6480 deg
Mean anomaly:     039.4341 deg
Mean motion:   14.21976340 rev/day
Decay rate:       1.76e-06 rev/day^2
Epoch rev:            2373
Checksum:              274

/EX




More information about the Keps mailing list